Location: Rounton
(54.4000°N, 1.3500°W)
Time: 05:14:09
(UTC+00:00)

A-11 Canister half - Pass Details

Date: 30 November 2021
Orbit: 1524 x 1684 km, 47.3° (Epoch: 17 January)

Event Time Altitude Azimuth Distance (km) Brightness Sun altitude
Exits shadow 04:43:38 37° 227° (SW) 2,406 9.6 -27.6°
Maximum altitude 04:47:43 56° 171° (S) 1,907 9.4 -27.0°
Drops below altitude 10° 04:57:12 10° 96° (E) 3,841 12.1 -25.7°
Sets 05:00:20 0° 93° (E) 4,805 13.0 -25.2°
